Location: Navalmoral
(40.4603°N, 4.7686°W)
Time: 09:31:52
(UTC+00:00)

Meteor 2-3 Rocket - Pass Details

Date: 05 August 2024
Orbit: 844 x 881 km, 81.2° (Epoch: 15 September)

Event Time Altitude Azimuth Distance (km) Brightness Sun altitude
Exits shadow 21:04:47 20° 163° (SSE) 1,870 5.0 -16.4°
Maximum altitude 21:08:32 53° 94° (E) 1,040 3.9 -16.9°
Drops below altitude 10° 21:13:57 10° 19° (NNE) 2,475 6.4 -17.7°
Sets 21:16:25 0° 15° (NNE) 3,413 7.2 -18.1°
